Date String (YYYY-MM-DD hh:mm:ss) UTC,Instrument flags,absolute air pressure of the measurement (hPa),sample flow rate (lpm),inlet stack bypass flow (lpm),air temperature of the measurement (°C),ambient temperature measured by the external sensor (°C),aerosol sample conditioner tube jacket temperature (°C),OPC LED temperature (°C),internal box temperature (°C),relative humidity of the measurement (%),span deviation,mass concentration of particles derived from Lorenz-Mie calculation of OPC scattering (μg/m³),mass concentration of particles derived from Lorenz-Mie calculation of OPC scattering (μg/m³),mass concentration of particles derived from Lorenz-Mie calculation of OPC scattering (μg/m³)
DateTimeUTC,F1_M11,P_M11,Q1_M11,Q2_M11,T1_M11,T2_M11,T3_M11,T4_M11,T5_M11,U1_M11,ZSPAN_M11,X0_M11,X2_M11,X1_M11
2023-10-28 21:00:00,SystemResetWarning,0832.0,5.01,000.00,021.6,020.3,000.0,030.0,023.1,15.0,0000.0,0009.24,0005.96,0005.45
2023-10-28 21:01:00,SystemResetWarning,0831.8,5.01,000.00,021.6,020.3,000.0,030.0,023.1,15.2,0000.0,0009.24,0005.95,0005.45
2023-10-28 21:02:00,SystemResetWarning,0831.8,5.00,000.00,021.6,020.3,000.0,030.0,023.1,15.4,0000.0,0009.38,0005.93,0005.45
2023-10-28 21:03:00,SystemResetWarning,0831.9,4.99,000.00,021.6,020.3,000.0,030.0,023.1,15.4,0000.0,0009.79,0005.90,0005.44
2023-10-28 21:04:00,SystemResetWarning,0832.0,5.00,000.00,021.6,020.3,000.0,030.0,023.1,15.3,0000.0,0009.96,0005.89,0005.44
2023-10-28 21:05:00,SystemResetWarning,0832.2,4.99,000.00,021.6,020.2,000.0,030.0,023.1,15.2,0000.0,0009.96,0005.89,0005.45
2023-10-28 21:06:00,SystemResetWarning,0831.7,5.00,000.00,021.6,020.2,000.0,030.0,023.1,15.3,0000.0,0009.87,0005.88,0005.45
2023-10-28 21:07:00,SystemResetWarning,0832.1,5.00,000.00,021.6,020.2,000.0,030.0,023.1,15.2,0000.0,0010.31,0005.90,0005.44
2023-10-28 21:08:00,SystemResetWarning,0832.2,5.00,000.00,021.6,020.2,000.0,030.0,023.1,15.0,0000.0,0010.31,0005.89,0005.44
2023-10-28 21:09:00,SystemResetWarning,0831.9,5.00,000.00,021.6,020.2,000.0,030.0,023.1,14.9,0002.8,0010.22,0005.89,0005.45
2023-10-28 21:10:00,SystemResetWarning,0831.8,5.00,000.00,021.6,020.2,000.0,030.0,023.0,15.0,0000.1,0010.42,0005.93,0005.48
2023-10-28 21:11:00,SystemResetWarning,0831.9,5.00,000.00,021.6,020.2,000.0,030.0,023.0,15.4,0000.0,0010.66,0005.95,0005.48
2023-10-28 21:12:00,SystemResetWarning,0831.9,4.99,000.00,021.6,020.2,000.0,029.9,023.0,15.6,0000.0,0010.70,0005.95,0005.47
2023-10-28 21:13:00,SystemResetWarning,0831.9,5.00,000.00,021.5,020.2,000.0,029.9,023.0,15.7,0000.0,0010.64,0005.93,0005.46
2023-10-28 21:14:00,SystemResetWarning,0831.9,4.99,000.00,021.5,020.2,000.0,029.9,023.0,15.8,0000.0,0010.25,0005.96,0005.46
2023-10-28 21:15:00,SystemResetWarning,0831.9,5.00,000.00,021.5,020.2,000.0,029.9,023.0,15.8,0000.0,0009.86,0005.95,0005.46
2023-10-28 21:16:00,SystemResetWarning,0831.9,4.99,000.00,021.5,020.1,000.0,029.9,023.1,15.9,0000.0,0009.90,0005.93,0005.45
2023-10-28 21:17:00,SystemResetWarning,0832.0,5.00,000.00,021.6,020.5,000.0,029.8,023.3,15.8,0000.0,0010.37,0005.92,0005.45
2023-10-28 21:18:00,SystemResetWarning,0832.0,5.01,000.00,021.7,021.4,000.0,029.8,023.7,15.7,0000.0,0009.96,0005.92,0005.45
2023-10-28 21:19:00,SystemResetWarning,0832.0,4.98,000.00,021.8,021.6,000.0,029.9,023.7,15.6,0000.0,0009.85,0005.91,0005.44
2023-10-28 21:20:00,SystemResetWarning,0832.0,4.99,000.00,021.8,021.5,000.0,029.9,023.5,15.7,0000.0,0009.88,0005.91,0005.43
2023-10-28 21:21:00,SystemResetWarning,0832.0,5.01,000.00,021.8,021.3,000.0,030.0,023.4,15.7,0000.0,0009.71,0005.88,0005.43
2023-10-28 21:22:00,SystemResetWarning,0831.9,5.00,000.00,021.8,021.2,000.0,030.0,023.4,15.8,0000.0,0009.59,0005.90,0005.44
2023-10-28 21:23:00,SystemResetWarning,0831.9,5.00,000.00,021.8,021.0,000.0,030.0,023.3,15.7,0000.0,0009.61,0005.91,0005.45
2023-10-28 21:24:00,SystemResetWarning,0831.9,5.00,000.00,021.8,020.9,000.0,030.0,023.3,15.8,0000.0,0009.66,0005.92,0005.44
2023-10-28 21:25:00,SystemResetWarning,0832.0,5.00,000.00,021.8,020.8,000.0,030.0,023.3,15.8,0000.0,0009.66,0005.92,0005.45
2023-10-28 21:26:00,SystemResetWarning,0832.0,5.00,000.00,021.8,020.7,000.0,030.1,023.3,15.8,0000.0,0009.67,0005.91,0005.44
2023-10-28 21:27:00,SystemResetWarning,0832.0,5.00,000.00,021.7,020.7,000.0,030.1,023.3,15.7,0000.0,0009.66,0005.91,0005.45
2023-10-28 21:28:00,SystemResetWarning,0832.0,5.00,000.00,021.7,020.6,000.0,030.1,023.2,15.7,0000.0,0009.26,0005.96,0005.46
2023-10-28 21:29:00,SystemResetWarning,0832.0,4.99,000.00,021.7,020.6,000.0,030.1,023.2,15.7,0000.0,0009.23,0005.97,0005.47
2023-10-28 21:30:00,SystemResetWarning,0832.0,5.00,000.00,021.7,020.5,000.0,030.1,023.2,15.7,0000.0,0009.33,0006.02,0005.49
2023-10-28 21:31:00,SystemResetWarning,0832.0,5.01,000.00,021.7,020.5,000.0,030.1,023.2,15.8,0000.0,0009.37,0006.05,0005.51
2023-10-28 21:32:00,SystemResetWarning,0832.0,5.02,000.00,021.7,020.4,000.0,030.1,023.2,15.8,-000.2,0009.34,0006.05,0005.51
2023-10-28 21:33:00,SystemResetWarning,0832.0,4.99,000.00,021.7,020.4,000.0,030.1,023.2,15.7,-000.6,0009.29,0006.05,0005.51
2023-10-28 21:34:00,SystemResetWarning,0832.0,5.00,000.00,021.7,020.4,000.0,030.1,023.2,15.7,-000.8,0009.19,0006.03,0005.50
2023-10-28 21:35:00,SystemResetWarning,0832.0,5.00,000.00,021.7,020.4,000.0,030.0,023.1,15.7,-000.0,0009.32,0006.02,0005.51
2023-10-28 21:36:00,SystemResetWarning,0831.9,4.99,000.00,021.7,020.4,000.0,030.0,023.1,15.7,0000.0,0009.28,0005.99,0005.51
2023-10-28 21:37:00,SystemResetWarning,0831.9,5.00,000.00,021.6,020.3,000.0,030.0,023.1,15.7,0000.0,0009.26,0005.98,0005.51
2023-10-28 21:38:00,SystemResetWarning,0831.9,5.00,000.00,021.6,020.3,000.0,030.0,023.1,15.8,0000.0,0009.42,0005.98,0005.52
2023-10-28 21:39:00,SystemResetWarning,0831.9,5.01,000.00,021.6,020.3,000.0,030.0,023.1,15.8,0000.0,0009.55,0005.98,0005.52
2023-10-28 21:40:00,SystemResetWarning,0831.9,5.00,000.00,021.6,020.3,000.0,030.0,023.1,15.8,0000.0,0009.46,0005.97,0005.51
2023-10-28 21:41:00,SystemResetWarning,0832.0,5.00,000.00,021.6,020.3,000.0,030.0,023.1,15.7,0000.0,0009.40,0005.94,0005.50
2023-10-28 21:42:00,SystemResetWarning,0832.1,4.99,000.00,021.6,020.2,000.0,030.0,023.0,15.7,0000.0,0009.34,0005.93,0005.49
2023-10-28 21:43:00,SystemResetWarning,0832.0,5.00,000.00,021.6,020.2,000.0,030.0,023.0,15.8,0000.0,0009.36,0005.93,0005.49
2023-10-28 21:44:00,SystemResetWarning,0832.0,5.00,000.00,021.6,020.2,000.0,030.0,023.1,15.8,0000.0,0009.65,0005.95,0005.48
2023-10-28 21:45:00,SystemResetWarning,0832.1,5.00,000.00,021.6,020.2,000.0,030.0,023.0,15.9,0000.0,0009.62,0005.95,0005.47
2023-10-28 21:46:00,SystemResetWarning,0832.0,5.00,000.00,021.5,020.2,000.0,030.0,023.0,16.0,0000.0,0009.59,0005.94,0005.46
2023-10-28 21:47:00,SystemResetWarning,0832.0,5.01,000.00,021.5,020.1,000.0,030.0,023.0,15.9,0000.0,0009.46,0005.97,0005.46
2023-10-28 21:48:00,SystemResetWarning,0832.0,5.00,000.00,021.5,020.1,000.0,029.9,023.0,15.9,0000.0,0009.65,0006.04,0005.47
2023-10-28 21:49:00,SystemResetWarning,0832.0,5.00,000.00,021.5,020.1,000.0,029.9,023.0,15.9,0000.0,0009.71,0006.09,0005.49
2023-10-28 21:50:00,SystemResetWarning,0832.1,4.99,000.00,021.5,020.1,000.0,029.9,023.0,15.9,0000.0,0009.68,0006.12,0005.50
2023-10-28 21:51:00,SystemResetWarning,0832.1,4.99,000.00,021.5,020.1,000.0,029.9,023.0,15.9,0000.0,0009.83,0006.15,0005.52
2023-10-28 21:52:00,SystemResetWarning,0832.0,4.99,000.00,021.5,020.1,000.0,029.9,022.9,15.9,0000.0,0009.87,0006.19,0005.55
2023-10-28 21:53:00,SystemResetWarning,0832.1,5.00,000.00,021.5,020.1,000.0,029.9,022.9,16.0,0000.0,0010.27,0006.23,0005.57
2023-10-28 21:54:00,SystemResetWarning,0832.1,5.00,000.00,021.4,020.0,000.0,029.9,022.8,15.9,0000.0,0010.40,0006.25,0005.57
2023-10-28 21:55:00,SystemResetWarning,0832.1,5.01,000.00,021.4,020.0,000.0,029.9,022.8,15.9,0000.0,0010.15,0006.23,0005.58
2023-10-28 21:56:00,SystemResetWarning,0832.1,5.00,000.00,021.4,020.0,000.0,029.9,022.8,15.8,0000.0,0010.21,0006.27,0005.62
2023-10-28 21:57:00,SystemResetWarning,0832.1,5.00,000.00,021.4,020.0,000.0,029.8,022.8,15.8,0000.0,0010.22,0006.30,0005.67
2023-10-28 21:58:00,SystemResetWarning,0832.1,5.01,000.00,021.4,020.0,000.0,029.8,022.8,15.8,0000.0,0010.36,0006.38,0005.73
2023-10-28 21:59:00,SystemResetWarning,0832.1,5.00,000.00,021.4,020.0,000.0,029.8,022.9,15.9,0000.0,0010.22,0006.40,0005.78
